West Memphis, AR

8:06 PM CDT on May 27, 2017 (GMT -0500)
West Memphis Municipal

Weather History for KAWM - November, 2012

Change the Weather History Date:

Monday, November 5, 2012

  Actual Average Record
Temperature  
Mean Temperature 44 °F -  
Max Temperature 52 °F 62 °F 82 °F (2005)
Min Temperature 37 °F 41 °F 20 °F (1991)
Degree Days  
Heating Degree Days 20    
Moisture  
Dew Point 41 °F    
Average Humidity 82    
Maximum Humidity 93    
Minimum Humidity 54    
Precipitation  
Precipitation 0.21 in - - ()
Sea Level Pressure  
Sea Level Pressure 30.05 in    
Wind  
Wind Speed 4 mph (East)    
Max Wind Speed 15 mph    
Max Gust Speed -    
Visibility 9 miles    
Events Rain    
Averages and records for this station are not official NWS values.
T = Trace of Precipitation, MM = Missing Value Source: NWS Daily Summary

Daily Weather History Graph

Daily Weather History Graph

Search for Another Location

Airport or City:

Trip Planner

Search our weather history database for the weather conditions in past years. The results will help you decide how hot, cold, wet, or windy it might be!

Date:

Astronomy

Nov. 05, 2012 Rise Set
Actual Time 6:26 AM CST 5:02 PM CST
Civil Twilight 5:59 AM CST 5:28 PM CST
Nautical Twilight 5:29 AM CST 5:58 PM CST
Astronomical Twilight 5:00 AM CST 6:28 PM CST
Moon 10:39 PM CST (11/5) 11:45 AM CST (11/5)
Length of Visible Light 11h 28m
Length of Day
10h 35m
Waning Gibbous, 62% of the Moon is Illuminated
Nov 5
Waning Gibbous
Nov 6
Last Quarter
Nov 13
New
Nov 20
First Quarter
Nov 28
Full

Hourly Weather History & Observations

Time (CST) Temp. Windchill Dew Point Humidity Pressure Visibility Wind Dir Wind Speed Gust Speed Precip Events Conditions
12:53 AM 39.0 °F - 36.0 °F 89% 30.12 in 10.0 mi Calm Calm - N/A   Clear
1:53 AM 37.9 °F - 36.0 °F 93% 30.13 in 10.0 mi Calm Calm - N/A   Clear
2:53 AM 39.0 °F - 37.0 °F 93% 30.12 in 10.0 mi Calm Calm - N/A   Clear
3:53 AM 39.9 °F 37.8 °F 37.0 °F 89% 30.12 in 10.0 mi NE 3.5 mph - N/A   Partly Cloudy
4:53 AM 44.1 °F 41.5 °F 37.0 °F 76% 30.09 in 10.0 mi East 4.6 mph - N/A   Partly Cloudy
5:53 AM 43.0 °F 41.3 °F 37.9 °F 82% 30.08 in 10.0 mi SE 3.5 mph - N/A   Clear
6:53 AM 44.1 °F - 37.0 °F 76% 30.09 in 10.0 mi North - - N/A   Partly Cloudy
7:53 AM 46.0 °F 42.5 °F 37.0 °F 71% 30.08 in 10.0 mi SE 6.9 mph - N/A   Partly Cloudy
8:53 AM 48.9 °F - 37.0 °F 64% 30.09 in 10.0 mi SSE 9.2 mph - N/A   Overcast
9:53 AM 50.0 °F - 36.0 °F 59% 30.09 in 10.0 mi SSE 8.1 mph - N/A   Overcast
10:53 AM 52.0 °F - 37.0 °F 57% 30.06 in 10.0 mi SSE 12.7 mph - N/A   Overcast
11:53 AM 52.0 °F - 36.0 °F 54% 30.06 in 10.0 mi SW 3.5 mph - N/A   Overcast
12:53 PM 48.9 °F - 42.1 °F 77% 30.04 in 10.0 mi North 4.6 mph - 0.02 in   Overcast
1:34 PM 46.4 °F 42.9 °F 44.6 °F 93% 30.03 in 2.5 mi SSE 6.9 mph - 0.08 in Rain Rain
1:53 PM 46.9 °F - 44.1 °F 90% 29.96 in 5.0 mi SE 15.0 mph - 0.17 in Rain Light Rain
2:53 PM 48.0 °F - 44.1 °F 86% 30.00 in 10.0 mi North 3.5 mph - 0.00 in   Overcast
3:53 PM 48.0 °F - 44.1 °F 86% 30.00 in 10.0 mi East 3.5 mph - N/A   Overcast
4:53 PM 48.0 °F - 44.1 °F 86% 30.00 in 10.0 mi Calm Calm - N/A   Overcast
5:53 PM 46.9 °F - 44.1 °F 90% 30.01 in 10.0 mi NNE 5.8 mph - N/A   Overcast
6:53 PM 46.9 °F - 44.1 °F 90% 30.02 in 8.0 mi NE 8.1 mph - 0.02 in Rain Light Rain
7:53 PM 46.9 °F - 45.0 °F 93% 30.02 in 10.0 mi ENE 6.9 mph - 0.00 in Rain Light Rain
8:53 PM 46.9 °F - 45.0 °F 93% 30.04 in 10.0 mi NE 5.8 mph - 0.00 in   Overcast
9:53 PM 46.9 °F - 45.0 °F 93% 30.03 in 10.0 mi NE 4.6 mph - N/A   Overcast
10:53 PM 46.9 °F - 44.1 °F 90% 30.02 in 10.0 mi Calm Calm - N/A   Overcast
11:53 PM 46.9 °F - 44.1 °F 90% 30.01 in 10.0 mi ENE 3.5 mph - N/A   Overcast